TimeEDT,TemperatureF,Dew PointF,Humidity,Sea Level PressureIn,VisibilityMPH,Wind Direction,Wind SpeedMPH,Gust SpeedMPH,PrecipitationIn,Events,Conditions,WindDirDegrees,DateUTC
12:33 AM,44.6,39.2,81,29.55,10.0,WNW,4.6,-,N/A,,Overcast,300,2012-11-03 04:33:00
12:53 AM,44.6,37.4,76,29.55,10.0,NW,4.6,-,N/A,,Overcast,310,2012-11-03 04:53:00
1:53 AM,44.1,37.9,79,29.56,10.0,NW,6.9,-,N/A,,Overcast,310,2012-11-03 05:53:00
2:53 AM,44.1,37.0,76,29.56,10.0,NW,6.9,-,N/A,,Overcast,320,2012-11-03 06:53:00
3:53 AM,42.1,36.0,79,29.57,10.0,WNW,3.5,-,N/A,,Mostly Cloudy,290,2012-11-03 07:53:00
4:53 AM,39.9,36.0,86,29.57,10.0,West,4.6,-,N/A,,Scattered Clouds,280,2012-11-03 08:53:00
5:53 AM,39.0,35.1,86,29.57,10.0,WNW,5.8,-,N/A,,Scattered Clouds,300,2012-11-03 09:53:00
6:53 AM,37.9,35.1,89,29.59,10.0,Calm,Calm,-,N/A,,Mostly Cloudy,0,2012-11-03 10:53:00
7:53 AM,39.0,36.0,89,29.61,10.0,Calm,Calm,-,N/A,,Mostly Cloudy,0,2012-11-03 11:53:00
8:53 AM,41.0,37.0,86,29.62,10.0,Calm,Calm,-,N/A,,Mostly Cloudy,0,2012-11-03 12:53:00
9:53 AM,43.0,37.9,82,29.62,10.0,NW,6.9,-,N/A,,Mostly Cloudy,320,2012-11-03 13:53:00
10:53 AM,46.0,39.0,76,29.62,10.0,NNW,9.2,-,N/A,,Mostly Cloudy,330,2012-11-03 14:53:00
11:53 AM,48.0,39.9,74,29.60,10.0,NW,8.1,-,N/A,,Mostly Cloudy,310,2012-11-03 15:53:00
12:00 PM,48.2,39.2,71,29.59,10.0,NNW,10.4,-,N/A,,Mostly Cloudy,330,2012-11-03 16:00:00
12:53 PM,50.0,39.9,68,29.58,10.0,NW,10.4,18.4,N/A,,Overcast,310,2012-11-03 16:53:00
1:00 PM,50.0,39.2,66,29.58,10.0,NW,13.8,-,N/A,,Overcast,310,2012-11-03 17:00:00
1:53 PM,50.0,39.0,66,29.59,10.0,NW,11.5,20.7,N/A,,Mostly Cloudy,320,2012-11-03 17:53:00
2:53 PM,48.9,37.9,66,29.60,10.0,NW,15.0,20.7,N/A,,Mostly Cloudy,310,2012-11-03 18:53:00
3:53 PM,48.0,37.0,66,29.62,10.0,NW,16.1,-,N/A,,Overcast,310,2012-11-03 19:53:00
4:53 PM,46.0,35.1,66,29.64,10.0,WNW,9.2,-,N/A,,Overcast,300,2012-11-03 20:53:00
5:53 PM,46.0,34.0,63,29.65,10.0,NW,8.1,18.4,N/A,,Overcast,310,2012-11-03 21:53:00
6:53 PM,44.1,34.0,68,29.65,10.0,NW,10.4,17.3,N/A,,Mostly Cloudy,310,2012-11-03 22:53:00
7:53 PM,44.1,34.0,68,29.66,10.0,NW,10.4,-,N/A,,Overcast,310,2012-11-03 23:53:00
8:53 PM,43.0,34.0,71,29.67,10.0,NW,9.2,-,N/A,,Overcast,310,2012-11-04 00:53:00
9:53 PM,42.1,35.1,76,29.68,10.0,WNW,5.8,-,0.00,,Overcast,300,2012-11-04 01:53:00
10:53 PM,42.1,35.1,76,29.68,10.0,West,3.5,-,0.00,,Overcast,280,2012-11-04 02:53:00
11:53 PM,43.0,35.1,74,29.68,10.0,WNW,4.6,-,N/A,,Overcast,290,2012-11-04 03:53:00